Wind_Speed
6 8 9 7 6 7 6 8 10 11 10 10 10 9 7 6 6 4 5 5 5 3 3 2 3 3 3 3 3 2 2 4 6 7 7 8 8 9 9 9 10 11 12 11 10 10 11 11 10
11 10 10 11 11 11 12 11 13 14 14 13 12 12 11 10 7 8 6 6 6 6 5 5 7 8 8 7 8 7 6 7 8 9 9 10 9 10 11 12 13 13 14 15 17 17 15 14 15
17 17 15 14 14 14 15 16 17 16 16 16 15 14 14 14 11 9 10 9 9 9 10 10 10 8 11 11 11 12 12 11 11 12 12 11 12 13 13 15 15 16 17 18 19 20 22 22 20
20 20 20 19 18 17 17 18 18 20 19 19 19 17 18 16 17 15 13 13 11 11 12 12 14 14 14 13 14 15 15 13 14 15 16 15 14 13 14 15 16 18 20 21 21 23 24 24 25
17 18 18 19 18 18 19 20 21 22 22 22 22 21 21 19 19 19 18 16 16 15 14 15 15 16 16 17 18 16 17 17 19 20 19 18 18 19 19 18 18 17 19 21 24 25 27 28 29
14 15 17 17 16 17 18 19 20 20 21 22 22 22 23 23 21 21 21 19 18 18 16 17 17 17 17 18 19 20 18 18 19 19 21 21 22 23 23 23 24 25 26 26 24 25 29 31 31
13 15 15 15 16 16 15 16 17 16 17 18 19 20 22 22 24 23 22 22 21 20 19 18 18 19 19 21 21 22 19 18 19 19 20 21 22 22 23 25 27 28 30 31 32 33 30 34 38
11 10 12 13 14 15 13 12 12 12 13 14 16 17 20 21 23 23 24 24 22 22 20 20 21 22 23 25 25 25 24 23 21 21 21 21 21 23 23 25 23 26 26 28 32 36 38 39 39
12 11 9 10 10 10 10 11 13 14 14 17 17 17 16 18 20 22 24 23 23 22 22 23 25 25 26 29 30 30 29 29 29 26 25 25 25 25 25 27 28 27 30 33 33 32 35 38 42
12 13 12 12 12 10 10 12 12 14 15 17 17 17 18 20 22 23 23 23 24 24 25 26 28 28 29 30 32 32 32 32 31 31 31 33 35 34 33 33 33 29 32 35 36 36 34 36 39
13 14 15 15 15 16 17 19 18 19 18 16 18 19 20 21 21 22 22 25 27 28 29 30 30 31 33 35 34 35 34 35 35 34 34 35 36 37 37 38 37 38 38 37 42 42 40 39 37
17 17 16 17 18 19 20 21 21 22 18 19 20 21 23 23 24 24 25 26 27 28 30 31 32 34 36 36 36 37 36 36 36 36 36 35 34 35 39 42 41 42 41 44 45 47 50 49 45
23 22 22 22 21 21 22 22 23 25 22 22 23 24 24 25 25 26 28 28 29 31 32 32 33 34 35 36 37 37 38 36 36 37 36 36 37 39 40 40 40 42 44 47 49 50 53 55 54
25 26 27 26 26 24 23 23 23 26 26 27 28 29 30 31 32 30 29 30 30 31 32 34 35 37 38 38 38 38 39 38 38 37 38 39 39 41 43 43 43 47 48 48 50 55 56 59 59
30 30 31 31 32 31 29 20 25 29 29 30 30 30 32 34 35 35 34 32 29 29 31 34 35 37 39 40 39 39 40 39 38 38 40 40 42 44 44 45 46 44 42 50 57 63 64 60 61
37 35 34 34 36 36 36 21 28 32 31 31 32 35 35 35 35 39 35 35 35 33 33 34 36 37 39 39 40 41 42 42 42 42 40 40 42 44 47 44 41 46 49 55 59 66 70 66 68
38 39 39 39 41 43 42 34 29 34 35 31 34 36 38 36 38 39 37 36 36 36 36 37 38 38 39 40 41 43 43 44 44 43 40 38 43 47 46 41 41 49 57 63 70 72 74 71 71
39 41 42 42 46 48 45 43 34 34 36 34 35 36 37 40 38 37 39 39 39 38 37 37 38 39 40 41 41 42 42 43 43 41 40 42 48 47 45 49 48 51 64 72 72 75 77 74 76
44 45 46 43 48 53 48 49 42 35 35 35 38 39 37 36 37 36 38 38 40 40 41 42 43 44 42 41 42 42 42 43 41 41 43 47 49 47 43 46 57 58 67 73 75 78 76 79 81
46 47 46 47 49 52 51 49 45 42 35 36 35 38 37 38 36 38 39 38 39 39 41 41 44 44 44 41 42 43 43 43 43 43 48 50 52 51 47 53 55 60 69 75 77 76 80 82 83
45 46 47 50 49 51 55 52 47 42 42 35 33 34 29 30 35 39 43 43 42 44 45 46 45 46 44 41 42 44 45 44 45 48 51 52 54 52 55 60 64 65 69 75 79 82 83 82 78
49 45 48 49 51 54 53 57 49 49 43 41 39 29 26 30 35 41 46 45 45 46 47 48 48 46 44 44 43 43 43 45 48 51 52 55 55 55 63 64 66 70 75 79 84 83 80 75 75
49 47 47 49 52 58 54 61 55 54 46 38 39 31 32 30 34 39 44 48 48 46 46 46 47 45 44 43 43 41 42 46 49 53 56 57 56 59 60 63 68 72 78 84 85 83 78 74 76
46 47 49 53 54 61 57 61 56 49 43 42 37 35 38 38 39 43 47 49 47 44 45 46 46 44 44 43 43 42 46 49 52 54 59 58 58 59 62 67 71 77 84 90 91 85 77 77 77
46 47 52 57 56 62 59 61 47 46 52 52 40 40 39 36 40 44 48 50 50 45 42 45 46 46 46 46 45 47 51 54 55 58 60 58 59 63 64 69 74 81 88 91 90 85 79 78 78
53 50 52 56 58 65 61 61 53 59 55 50 42 35 33 37 39 46 51 56 51 46 44 45 49 49 50 50 50 52 57 58 58 59 60 60 61 65 66 70 76 84 90 89 85 84 81 80 78
56 58 53 55 57 62 63 61 62 62 57 45 45 43 41 37 38 45 52 55 52 49 48 49 51 51 51 53 54 56 60 60 59 59 60 61 64 65 69 73 80 87 90 89 87 85 80 79 81
55 56 59 58 60 65 65 65 67 66 56 44 45 49 46 45 42 48 56 55 56 52 48 50 51 52 54 54 55 58 61 62 62 61 62 64 64 68 72 79 85 91 90 91 90 87 80 80 83
61 64 62 59 63 66 63 65 67 62 56 50 51 47 43 48 46 53 59 61 57 52 52 52 51 54 54 55 55 58 59 60 58 62 63 66 69 71 76 80 90 91 88 88 90 87 83 83 86
66 65 64 66 64 66 69 68 63 53 57 54 50 48 49 54 49 56 63 65 63 54 56 54 54 57 57 57 59 59 59 60 62 65 66 69 70 74 77 82 89 91 91 91 91 84 83 85 90
Wind_Direction
280 306 315 318 307 303 302 308 315 313 311 317 321 327 321 327 347 350 1 356 335 306 273 286 284 277 257 224 198 192 251 270 272 277 278 293 293 287 284 277 278 276 285 287 290 297 302 302 290
276 277 278 288 293 290 293 298 305 309 309 306 307 310 313 311 312 305 314 323 314 296 300 317 291 288 280 247 248 242 244 260 270 268 259 265 268 271 273 277 280 285 286 287 291 289 282 280 286
269 277 287 286 283 282 286 290 298 302 303 298 294 294 298 298 294 290 283 287 295 297 297 279 272 281 275 275 268 245 249 265 275 276 263 253 253 255 255 263 272 271 273 275 278 284 287 285 277
278 282 287 290 288 286 283 282 288 294 293 290 289 284 284 287 290 286 281 274 269 272 272 279 281 279 281 278 280 278 277 282 304 294 284 276 272 275 265 258 260 264 269 273 272 270 271 273 278
287 288 287 286 287 289 286 282 282 285 287 287 287 283 278 281 282 285 282 278 276 270 268 268 278 287 287 289 288 281 285 292 293 294 289 283 281 278 280 283 275 276 280 279 275 274 270 267 267
297 294 291 292 291 290 291 289 289 289 287 286 286 282 277 278 279 279 278 278 276 272 264 264 269 280 287 290 283 278 273 271 276 278 283 284 284 282 280 282 282 282 280 282 281 280 275 274 268
302 297 295 297 299 298 300 300 298 296 295 292 289 285 282 280 281 282 282 281 277 272 261 262 266 269 274 282 287 278 268 278 284 280 278 278 277 275 273 272 273 278 279 278 277 276 275 272 270
325 315 302 296 298 304 311 316 318 316 309 302 291 290 291 289 286 286 283 282 280 278 269 268 272 272 270 274 278 277 274 271 272 271 275 279 274 270 268 271 275 281 283 290 288 282 275 274 269
332 332 326 314 304 304 308 312 316 315 315 311 316 308 301 292 285 282 283 283 280 274 269 275 275 272 273 272 275 276 274 273 269 264 266 271 272 274 279 283 284 284 285 286 288 285 284 279 277
322 322 326 327 325 320 317 318 319 318 319 314 312 314 310 303 298 294 289 282 275 271 270 273 275 272 275 274 277 275 273 272 274 269 269 269 271 274 275 283 283 282 284 282 282 284 284 283 281
326 319 318 315 316 315 315 312 310 308 317 315 311 312 309 304 299 296 293 287 283 281 279 278 277 278 276 276 279 278 276 276 277 274 274 277 274 274 273 282 279 285 282 286 280 278 283 283 285
310 310 311 312 313 313 315 317 318 306 307 310 310 310 310 311 307 300 292 286 282 281 280 280 281 281 279 278 278 276 275 277 277 274 277 278 277 278 281 284 284 286 285 286 283 281 281 276 277
302 303 305 304 305 308 310 315 317 307 310 312 311 310 310 310 314 309 302 294 288 284 283 284 283 282 283 283 282 277 280 282 279 278 277 281 280 285 288 288 288 287 291 289 284 281 280 276 274
295 298 300 303 304 307 307 313 312 305 311 310 307 306 305 305 307 306 304 302 297 291 285 283 281 281 282 283 282 280 283 282 282 282 285 283 283 288 289 288 290 294 299 297 299 295 285 279 275
291 294 296 297 298 301 299 315 315 309 309 307 305 300 299 298 300 300 301 299 301 293 286 282 280 280 282 284 285 285 288 287 285 288 290 284 282 288 292 291 293 296 302 304 301 298 292 280 278
287 289 292 294 295 295 293 298 305 303 307 305 302 300 298 298 295 297 302 303 299 297 294 290 287 285 286 288 288 287 288 287 287 288 288 286 289 291 290 293 292 301 299 299 303 298 292 284 282
286 288 291 293 294 293 293 294 294 298 297 301 304 299 293 295 294 296 298 299 302 303 300 299 295 291 288 288 288 286 287 287 289 290 287 289 290 291 292 293 304 307 305 299 302 296 291 286 285
288 286 286 289 290 288 291 291 292 293 295 298 301 295 291 288 291 294 293 294 296 298 298 297 295 291 286 285 285 287 289 289 289 288 287 288 290 290 294 296 294 303 305 303 296 292 287 288 288
286 286 286 289 289 290 293 290 296 294 295 299 297 293 288 282 289 289 288 289 292 293 294 292 291 291 292 289 286 286 287 287 287 286 285 285 286 287 297 301 296 294 301 300 296 291 291 292 292
285 286 288 287 288 290 290 288 295 297 299 298 294 292 287 285 283 286 285 289 290 293 295 296 295 294 290 290 285 283 284 284 285 285 286 287 287 286 288 292 294 294 301 299 293 293 293 295 297
288 288 288 288 288 287 288 289 295 299 301 301 297 295 286 281 279 282 282 284 287 292 293 296 297 291 288 290 286 280 280 281 282 285 288 288 286 287 290 292 293 298 301 297 294 293 295 298 294
285 288 289 291 291 291 293 297 297 303 306 309 307 295 287 285 281 278 278 282 288 291 294 296 295 292 287 284 280 276 278 280 283 288 289 287 285 290 292 295 296 297 296 295 293 297 300 297 294
285 287 287 288 289 294 299 299 303 303 307 313 306 301 298 290 285 282 280 283 287 288 295 293 295 290 287 280 276 274 274 279 286 290 293 286 288 287 290 294 296 297 295 293 298 304 302 294 293
283 284 285 284 288 292 302 297 294 303 305 306 310 301 304 300 289 288 289 289 288 293 293 292 294 292 286 279 276 277 280 285 288 289 289 285 285 290 294 295 296 296 294 295 299 303 299 293 293
280 282 282 285 291 293 295 291 298 304 301 304 304 296 299 292 296 294 291 291 292 294 290 292 289 290 286 282 278 280 284 286 287 289 287 284 286 291 294 298 298 295 294 296 303 303 299 292 292
278 276 275 286 288 287 286 287 299 299 299 302 308 302 304 297 293 288 289 288 294 298 294 291 288 289 283 280 280 284 286 287 287 287 283 282 286 291 295 296 296 294 295 302 305 302 297 293 293
278 277 282 278 281 283 289 292 296 294 295 305 310 304 307 305 292 289 288 289 294 296 298 292 290 288 283 281 282 284 286 286 283 283 283 284 286 293 295 295 294 293 297 302 304 302 297 295 295
274 278 278 279 278 279 286 289 289 291 298 308 311 302 306 302 290 287 285 290 293 297 298 292 290 286 280 280 282 285 286 283 281 282 283 286 290 295 296 295 292 294 298 301 303 301 299 296 297
274 274 274 275 278 280 288 280 287 296 307 305 304 300 300 297 290 287 290 292 292 297 297 293 288 282 280 281 284 285 280 279 281 283 285 288 291 293 295 298 295 298 300 304 305 304 301 300 301
273 276 278 275 281 281 277 281 292 300 297 296 300 296 292 289 292 284 285 288 289 292 296 294 284 279 279 282 286 281 279 280 282 286 288 291 291 295 298 297 298 299 301 304 304 303 299 300 303
Height
5893 5892 5891 5890 5892 5889 5887 5886 5884 5882 5881 5880 5878 5877 5876 5874 5873 5874 5871 5870 5869 5869 5868 5868 5867 5867 5866 5865 5865 5864 5863 5863 5862 5861 5860 5860 5859 5859 5858 5857 5857 5857 5856 5856 5855 5856 5856 5856 5856
5892 5891 5891 5889 5889 5887 5886 5884 5882 5880 5879 5877 5876 5875 5874 5873 5872 5870 5869 5868 5867 5866 5866 5866 5866 5867 5866 5865 5864 5863 5862 5862 5861 5859 5858 5857 5857 5856 5855 5855 5854 5854 5854 5854 5854 5853 5852 5852 5853
5890 5889 5889 5887 5886 5886 5884 5882 5880 5878 5877 5875 5873 5873 5871 5871 5870 5869 5867 5865 5865 5865 5864 5864 5864 5865 5864 5864 5863 5862 5860 5860 5859 5859 5857 5856 5855 5853 5852 5852 5852 5852 5851 5850 5850 5850 5850 5850 5850
5887 5887 5886 5885 5883 5882 5881 5879 5878 5876 5875 5873 5871 5870 5869 5868 5868 5867 5865 5863 5863 5863 5863 5862 5861 5861 5860 5860 5860 5860 5859 5858 5858 5858 5856 5855 5854 5853 5852 5851 5850 5849 5847 5847 5846 5846 5846 5846 5846
5885 5884 5882 5881 5880 5879 5878 5876 5875 5873 5871 5869 5868 5867 5865 5865 5864 5863 5862 5861 5861 5860 5859 5858 5857 5857 5857 5857 5857 5856 5855 5855 5854 5853 5852 5851 5850 5849 5848 5848 5848 5846 5845 5844 5844 5843 5842 5841 5840
5883 5881 5879 5878 5876 5875 5874 5872 5871 5869 5867 5866 5864 5863 5862 5861 5861 5860 5859 5859 5857 5856 5855 5854 5854 5853 5853 5853 5852 5852 5851 5850 5850 5849 5848 5847 5846 5845 5844 5843 5842 5841 5840 5839 5839 5838 5837 5837 5836
5881 5879 5877 5875 5873 5872 5870 5869 5867 5865 5863 5861 5860 5859 5858 5857 5857 5856 5855 5854 5853 5852 5851 5850 5849 5849 5849 5849 5847 5846 5844 5843 5843 5842 5842 5841 5840 5839 5838 5837 5836 5835 5834 5833 5833 5832 5831 5830 5829
5879 5877 5875 5873 5872 5870 5868 5866 5864 5862 5860 5857 5855 5854 5854 5853 5852 5851 5850 5849 5849 5848 5847 5846 5845 5845 5844 5843 5842 5841 5839 5838 5837 5837 5836 5835 5834 5833 5832 5831 5831 5829 5829 5827 5826 5825 5824 5822 5821
5878 5877 5874 5872 5870 5868 5866 5864 5862 5860 5857 5854 5852 5850 5849 5848 5847 5846 5845 5845 5844 5843 5843 5842 5840 5839 5838 5837 5835 5835 5834 5832 5832 5831 5830 5829 5828 5827 5826 5825 5824 5823 5822 5820 5819 5818 5817 5815 5815
5876 5875 5873 5871 5868 5866 5864 5861 5859 5857 5855 5852 5850 5847 5846 5844 5843 5842 5841 5840 5838 5837 5837 5835 5833 5832 5831 5830 5830 5829 5828 5827 5825 5824 5822 5822 5822 5821 5819 5818 5816 5814 5813 5813 5811 5810 5808 5805 5804
5874 5872 5870 5868 5867 5864 5862 5859 5856 5854 5851 5848 5846 5844 5842 5840 5838 5837 5835 5834 5834 5833 5831 5829 5827 5827 5825 5824 5823 5822 5820 5819 5817 5816 5815 5814 5813 5812 5811 5809 5808 5807 5805 5803 5801 5799 5798 5797 5795
5872 5869 5867 5865 5863 5861 5858 5855 5852 5849 5847 5844 5841 5839 5836 5834 5832 5831 5830 5828 5827 5825 5824 5823 5822 5821 5819 5818 5817 5815 5813 5812 5810 5809 5807 5806 5804 5803 5802 5800 5799 5798 5796 5794 5792 5789 5787 5786 5783
5867 5866 5863 5861 5859 5857 5854 5852 5849 5845 5843 5840 5837 5834 5831 5829 5826 5825 5823 5821 5819 5817 5816 5815 5814 5812 5810 5809 5807 5805 5804 5802 5801 5800 5798 5797 5796 5794 5792 5790 5789 5787 5786 5783 5780 5777 5774 5771 5770
5863 5861 5859 5857 5854 5852 5850 5848 5845 5841 5839 5835 5833 5829 5826 5823 5820 5817 5816 5814 5812 5810 5808 5806 5805 5803 5801 5799 5797 5796 5794 5792 5791 5790 5789 5787 5786 5784 5782 5780 5778 5776 5773 5769 5766 5763 5759 5756 5755
5858 5856 5853 5851 5848 5846 5845 5845 5841 5836 5834 5831 5828 5824 5821 5817 5814 5811 5809 5807 5805 5803 5800 5797 5795 5793 5791 5789 5787 5785 5783 5782 5781 5780 5778 5776 5775 5773 5771 5768 5767 5763 5759 5756 5753 5748 5745 5742 5740
5852 5850 5847 5845 5842 5840 5837 5842 5836 5830 5829 5825 5821 5817 5813 5810 5807 5803 5802 5799 5797 5794 5791 5788 5785 5782 5780 5778 5776 5773 5771 5770 5769 5768 5767 5765 5764 5761 5759 5757 5754 5750 5745 5741 5736 5731 5727 5724 5722
5847 5843 5841 5838 5833 5829 5827 5831 5831 5825 5821 5820 5814 5809 5806 5802 5799 5795 5794 5790 5788 5785 5782 5779 5775 5773 5770 5767 5765 5763 5761 5760 5758 5756 5755 5754 5752 5749 5747 5744 5742 5738 5734 5728 5723 5717 5711 5707 5703
5838 5835 5834 5831 5824 5818 5818 5817 5823 5820 5813 5812 5808 5802 5798 5794 5791 5788 5785 5782 5779 5776 5773 5770 5766 5763 5760 5757 5754 5752 5750 5747 5746 5745 5744 5742 5740 5737 5734 5732 5728 5724 5721 5715 5707 5702 5694 5690 5685
5829 5826 5823 5824 5815 5807 5809 5801 5808 5810 5807 5804 5800 5793 5789 5786 5783 5780 5777 5773 5770 5767 5764 5760 5757 5752 5750 5746 5743 5741 5739 5737 5735 5734 5732 5729 5726 5724 5721 5718 5713 5709 5705 5698 5691 5685 5679 5672 5666
5818 5815 5815 5811 5806 5797 5794 5791 5796 5796 5799 5795 5790 5785 5781 5778 5774 5770 5766 5763 5761 5757 5753 5749 5745 5741 5737 5735 5732 5730 5727 5726 5725 5722 5720 5717 5714 5710 5707 5704 5699 5693 5688 5681 5673 5666 5660 5651 5643
5807 5805 5802 5797 5796 5790 5780 5778 5782 5786 5784 5786 5780 5775 5772 5768 5765 5760 5755 5752 5749 5746 5742 5737 5733 5728 5726 5723 5720 5718 5716 5714 5711 5708 5707 5703 5699 5695 5692 5685 5681 5674 5670 5663 5655 5649 5643 5635 5625
5794 5797 5791 5787 5783 5775 5776 5754 5771 5772 5772 5771 5767 5764 5762 5760 5756 5750 5744 5741 5739 5735 5731 5727 5722 5717 5714 5711 5707 5705 5703 5701 5699 5696 5690 5686 5683 5680 5676 5670 5665 5660 5654 5646 5638 5632 5624 5616 5610
5785 5784 5781 5776 5771 5762 5767 5756 5755 5756 5757 5761 5753 5753 5751 5749 5744 5738 5733 5729 5727 5725 5721 5716 5711 5707 5703 5699 5695 5692 5689 5687 5683 5680 5676 5671 5666 5662 5658 5652 5648 5642 5635 5626 5617 5610 5604 5596 5591
5775 5772 5769 5764 5761 5750 5757 5749 5742 5748 5745 5746 5749 5742 5738 5735 5729 5724 5719 5715 5712 5711 5707 5703 5699 5694 5690 5686 5684 5681 5678 5675 5670 5666 5662 5657 5651 5647 5641 5636 5631 5623 5614 5606 5597 5590 5582 5574 5567
5765 5762 5755 5750 5750 5741 5742 5733 5733 5739 5735 5732 5734 5730 5727 5722 5717 5712 5705 5700 5697 5697 5695 5690 5686 5681 5678 5674 5671 5668 5665 5661 5656 5652 5648 5643 5637 5631 5626 5618 5611 5601 5593 5583 5577 5567 5560 5552 5544
5749 5750 5746 5741 5737 5728 5729 5717 5723 5719 5720 5723 5722 5718 5715 5712 5707 5699 5694 5687 5685 5683 5680 5675 5671 5667 5664 5661 5658 5655 5651 5646 5640 5635 5632 5626 5620 5614 5609 5600 5591 5581 5571 5564 5555 5545 5537 5529 5521
5737 5732 5736 5728 5726 5717 5713 5710 5708 5706 5705 5711 5708 5705 5702 5699 5694 5687 5680 5674 5672 5669 5667 5662 5657 5653 5649 5646 5643 5640 5636 5631 5626 5620 5615 5610 5604 5598 5589 5582 5572 5562 5553 5545 5535 5524 5513 5504 5495
5723 5723 5716 5714 5710 5705 5701 5700 5695 5691 5697 5702 5696 5687 5685 5682 5679 5671 5662 5661 5657 5654 5650 5646 5643 5639 5633 5630 5627 5624 5620 5616 5610 5605 5599 5594 5587 5580 5572 5563 5553 5542 5533 5523 5512 5501 5489 5480 5470
5705 5701 5701 5700 5695 5688 5689 5682 5682 5685 5686 5683 5682 5677 5672 5666 5662 5654 5649 5645 5640 5638 5636 5631 5626 5622 5618 5616 5612 5607 5603 5599 5594 5589 5583 5576 5569 5561 5553 5544 5534 5523 5512 5501 5491 5479 5470 5458 5447
5686 5686 5686 5677 5678 5674 5666 5666 5674 5681 5673 5675 5668 5663 5657 5648 5646 5641 5635 5629 5627 5625 5622 5618 5611 5606 5602 5600 5597 5591 5587 5583 5578 5572 5565 5559 5551 5543 5534 5525 5514 5504 5493 5482 5468 5456 5446 5436 5424